Location: Dana
(41.8364°N, 106.7042°W)
Time: 10:57:53
(UTC+00:00)

Injun/Solrad 3 - Pass Details

Date: 15 May 2026
Orbit: 867 x 989 km, 66.8° (Epoch: 11 June)

Event Time Altitude Azimuth Distance (km) Brightness Sun altitude
Rises 07:15:48 0° 331° (NNW) 3,682 11.8 -29.2°
Reaches altitude 10° 07:18:24 10° 334° (NNW) 2,741 11.1 -29.2°
Maximum altitude 07:24:49 67° 57° (ENE) 1,070 8.2 -29.1°
Enters shadow 07:25:57 56° 106° (ESE) 1,161 8.2 -29.0°
Drops below altitude 10° 07:31:13 10° 140° (SE) 2,737 - -28.9°
Sets 07:33:48 0° 143° (SE) 3,676 - -28.9°
